Regional Weather Roundup
Issued by NWS

Home | Current Version | Previous Version | Graphics & Text | Print | Product List | Glossary On
Versions: 1 2 3 4 5 6 7 8 9 10 11 12 13 14 15 16 17 18 19 20 21 22 23 24 25 26 27 28 29 30 31 32 33 34 35 36 37 38 39 40 41 42 43 44 45 46 47 48 49 50
000
ASUS43 KOAX 200402
RWRNE

WEATHER ROUNDUP FOR NEBRASKA
NATIONAL WEATHER SERVICE OMAHA NE
1100 PM CDT FRI SEP 19 2014

NOTES: SATELLITE DATA IS BEING USED TO AUGMENT CLOUD COVER ABOVE
       12000 FEET.
       "FAIR" INDICATES FEW OR NO CLOUDS BELOW 12,000 FEET WITH NO
       SIGNIFICANT WEATHER AND/OR OBSTRUCTIONS TO VISIBILITY.

  * THESE STATIONS DO NOT REPORT WEATHER SUCH AS RAIN...SNOW OR FOG.

NEZ001>004-019>022-054>056-200500-
NEBRASKA PANHANDLE

CITY           SKY/WX    TMP DP  RH WIND       PRES   REMARKS
SCOTTSBLUFF    PTCLDY    65  51  60 NW3       29.96R
ALLIANCE       PTCLDY    66  51  58 NE6       29.94R
CHADRON        CLEAR     64  53  67 N6        29.95R
KIMBALL        PTCLDY    62  53  72 SW7       30.00R
SIDNEY         MOCLDY    65  56  72 SW8       29.98R
$$

NEZ057>060-069>072-079>082-200500-
SOUTHWEST NEBRASKA

CITY           SKY/WX    TMP DP  RH WIND       PRES   REMARKS
NORTH PLATTE   CLOUDY    72  60  66 W5        29.86R
IMPERIAL       CLOUDY    75  59  57 S15       29.88S
LEXINGTON      PTCLDY    76  60  58 S14G21    29.85S
MCCOOK         MOCLDY    75  58  55 S10       29.88R
OGALLALA       CLOUDY    66  60  80 CALM      29.88S
$$

NEZ005>010-023>029-035>040-094-200500-
NORTH CENTRAL NEBRASKA

CITY           SKY/WX    TMP DP  RH WIND       PRES   REMARKS
VALENTINE      CLEAR     62  56  80 W7        29.86R
AINSWORTH      PTCLDY    63  57  83 S5        29.85S
BROKEN BOW     MOCLDY    76  61  59 SW6       29.85R
O`NEILL        PTCLDY    70  64  81 NW6       29.81S
ORD            PTCLDY    75  61  61 SW8       29.81R
THEDFORD       MOCLDY    69  59  71 CALM      29.88F
$$

NEZ041-046>049-061>064-073>077-083>087-200500-
SOUTH CENTRAL NEBRASKA

CITY           SKY/WX    TMP DP  RH WIND       PRES   REMARKS
GRAND ISLAND   CLEAR     78  62  57 S20G28    29.83S
AURORA         CLEAR     76  59  55 S15G22    29.83S
HASTINGS       CLEAR     75  59  57 S13       29.86S
HEBRON         CLEAR     73  64  73 S9        29.89R
HOLDREGE       CLEAR     74  59  58 S15       29.86F
KEARNEY *      CLEAR     73  59  60 S17       29.86S
YORK           CLEAR     72  66  83 S10       29.84S
$$

NEZ011>018-030>034-042>045-200500-
NORTHEAST NEBRASKA

CITY           SKY/WX    TMP DP  RH WIND       PRES   REMARKS
NORFOLK        MOCLDY    77  64  64 SW18G28   29.76R
ALBION         CLEAR     73  62  68 SW8       29.79S
BLAIR          CLEAR     75  69  80 S16G24    29.81R
COLUMBUS *     CLEAR     75  63  64 S15       29.80R
FREMONT        CLEAR     76  67  72 S14G21    29.80R
TEKAMAH        CLEAR     76  69  79 S13       29.78R
WAYNE          MOCLDY    74  66  78 NW7       29.78R
$$

NEZ050>053-065>068-078-088>093-200500-
SOUTHEAST NEBRASKA

CITY           SKY/WX    TMP DP  RH WIND       PRES   REMARKS
LINCOLN        CLEAR     76  69  79 S20       29.83F
OMAHA EPPLEY   PTCLDY    75  68  78 S17       29.81S
BEATRICE       CLEAR     73  68  84 S13       29.88S
FALLS CITY     CLEAR     71  68  90 S14       29.90R
NEBRASKA CITY    N/A     72  63  74 S17       29.86F
PLATTSMOUTH    CLEAR     72  67  82 S17G25    29.83F
$$

NEZ044-045-051>053-067-200500-
OMAHA AREA

CITY           SKY/WX    TMP DP  RH WIND       PRES   REMARKS
OMAHA EPPLEY   PTCLDY    75  68  78 S17       29.81S
BLAIR          CLEAR     75  69  80 S16G24    29.81R
FREMONT        CLEAR     76  67  72 S14G21    29.80R
MILLARD        CLEAR     75  69  81 S9        29.81S
OFFUTT AFB     CLEAR     74  73  99 S15       29.81F
PLATTSMOUTH    CLEAR     72  67  82 S17G25    29.83F
WAHOO          FAIR      76  67  75 S15       29.80F
$$


USA.gov is the U.S. government's official web portal to all federal, state and local government web resources and services.